Location: Berry Creek
(51.8849°N, 111.7341°W)
Time: 03:28:29
(UTC-07:00)

Daily predictions for brighter satellites

Satellite Brightness Start Highest point End
(mag) Time Altitude Azimuth Time Altitude Azimuth Time Altitude Azimuth
CENTAUR R/B 4.4 03:27:39 26° E 03:27:39 26° E 03:31:28 10° NE
ATLAS 3B R/B 4.2 03:47:33 29° NNE 03:47:33 29° NNE 03:51:15 10° NE
Cosmos 2333 Rocket 4.3 04:04:12 21° NE 04:04:12 21° NE 04:05:57 10° NNE
Cosmos 1943 Rocket 4.3 04:09:03 20° NNE 04:09:03 20° NNE 04:13:00 10° ENE
SL-16 R/B 3.4 04:22:03 39° ENE 04:22:03 39° ENE 04:26:11 10° NE
CZ-4C R/B 3.9 04:24:56 29° NNE 04:24:56 29° NNE 04:29:30 10° NE
NOSS 3-2 (A) 4.5 04:29:09 41° NNE 04:29:09 41° NNE 04:34:07 10° NE
Cosmos 2360 Rocket 4.5 04:32:16 14° N 04:32:16 14° N 04:33:12 10° NNE
ADEOS II 3.6 04:30:13 10° NNE 04:32:51 29° NNE 04:32:51 29° NNE
Cosmos 2237 Rocket 3.4 04:52:11 31° NNE 04:52:11 31° NNE 04:55:10 10° NNE
SL-16 R/B 4.5 04:58:19 12° N 04:58:19 12° N 04:59:22 10° N
Cosmos 2369 Rocket 2.5 05:10:40 51° N 05:11:55 66° NE 05:17:36 10° SE
Okean-O 4.5 05:10:48 10° NNE 05:12:22 22° NNE 05:12:22 22° NNE
CENTAUR R/B 2.5 05:14:51 68° W 05:15:37 76° NW 05:22:54 10° NE
Cosmos 1680 Rocket 3.6 05:18:21 65° N 05:18:21 65° N 05:22:50 10° NNE
Lacrosse 5 3.9 05:14:07 11° S 05:18:06 25° SE 05:22:13 10° ENE
Cosmos 1603 4.5 05:13:10 10° S 05:18:38 50° ESE 05:24:05 10° NE
ATLAS 5 CENTAUR R/B 3.5 05:20:03 25° N 05:20:18 25° N 05:25:06 10° NE
Cosmos 1452 Rocket 4.0 05:19:31 38° N 05:21:21 58° ENE 05:26:33 10° SE
Cosmos 292 Rocket 4.1 05:22:55 57° NNE 05:22:55 57° NNE 05:26:47 10° NNE
Okean 1 Rocket 4.3 05:19:50 10° SSE 05:23:57 40° E 05:28:02 10° NNE
Cosmos 2219 Rocket 3.6 05:26:03 24° N 05:26:03 24° N 05:29:05 10° NNE
Feng Yun 1-1 Rocket 4.1 05:22:42 10° NNE 05:28:24 87° WNW 05:33:54 10° SSW
COSMO-SKYMED 1 2.6 05:26:32 10° SSE 05:30:31 75° SSE 05:30:31 75° SSE
Lacrosse 4 Rocket 2.7 05:33:40 29° NNE 05:34:38 33° NE 05:38:23 10° ESE
COSMOS 2455 4.5 05:34:13 19° NNW 05:34:52 19° N 05:39:07 10° NE
ATLAS 3B R/B 3.8 05:34:49 27° NNW 05:37:06 32° N 05:43:12 10° ENE
Cosmos 2112 Rocket 3.8 05:37:21 66° WNW 05:37:33 67° WNW 05:42:45 10° NNE
Okean 1-7 Rocket 3.6 05:36:19 45° N 05:37:37 75° E 05:41:59 10° SSE
CZ-4B R/B 4.0 05:34:53 10° NNE 05:39:16 77° NW 05:39:16 77° NW
Meteor 1-20 Rocket 4.0 05:34:26 10° SSW 05:39:59 73° WNW 05:45:29 10° N
NOAA 6 4.1 05:34:52 10° NNE 05:40:01 77° ESE 05:45:09 10° S
Cosmos 839 Rocket 4.4 05:37:41 28° NNW 05:41:27 65° NE 05:47:37 10° SE
Lacrosse 5 rocket 2.1 05:42:30 42° N 05:42:30 42° N 05:46:24 10° ENE
Tiangong 2 3.7 05:44:45 15° SSE 05:44:45 15° SSE 05:46:02 10° SE
Cosmos 2333 Rocket 3.4 05:46:13 26° NNW 05:46:13 26° NNW 05:49:59 10° NNE
Cosmos 1300 Rocket 3.5 05:45:33 10° S 05:49:59 87° E 05:54:24 10° NNE
CRYOSAT 2 4.3 05:47:39 10° S 05:52:31 64° W 05:56:34 15° NNW
Nadezhda 3 Rocket 3.9 05:46:28 10° NNW 05:52:51 79° W 05:59:13 10° S
Cosmos 1633 2.8 05:49:16 10° S 05:52:53 69° E 05:56:31 10° NNE
Cosmos 1943 Rocket 2.4 05:50:35 25° NNW 05:53:53 66° NE 05:59:22 10° SE
NOSS 3-2 (C) 4.4 05:52:27 31° NW 05:54:12 36° NNW 06:00:47 10° NE
SL-08 ROCKET BODY 4.5 05:58:15 10° SSW 06:03:59 49° WNW 06:09:42 10° N
ADEOS Rocket 4.4 05:59:38 10° N 06:02:05 19° NNW 06:02:05 19° NNW
SL-16 R/B 2.6 06:03:59 37° WNW 06:05:00 41° NW 06:10:23 10° NNE
Helios 1B rocket 3.6 06:02:37 10° SE 06:06:33 42° ENE 06:10:29 10° N
Cosmos 1602 3.6 06:03:50 10° SSW 06:07:48 74° WNW 06:11:47 10° N
Meteor 1-19 Rocket 4.3 06:05:53 13° NNW 06:11:04 58° W 06:16:43 10° S
CZ-4C R/B 3.7 06:10:06 20° NW 06:13:49 35° NNE 06:20:22 10° E
Cosmos 2056 Rocket 4.4 06:14:21 28° WSW 06:14:21 28° WSW 06:18:15 10° SSW
Cosmos 2322 Rocket 4.4 06:13:06 10° NNW 06:14:35 11° N 06:16:04 10° NNE
Cosmos 2360 Rocket 4.2 06:14:02 11° NNW 06:14:51 11° N 06:16:43 10° N
ADEOS II 3.2 06:10:29 10° N 06:13:47 25° NW 06:13:47 25° NW
Cosmos 1420 Rocket 3.9 06:11:43 19° NNW 06:15:37 90° ENE 06:20:51 10° SSE
SL-23 DEB 4.1 06:16:38 35° SW 06:17:00 37° SSW 06:20:10 10° SE
Cosmos 2074 Rocket 4.3 06:11:44 10° SW 06:17:39 42° WNW 06:23:35 10° N
Cosmos 1980 Rocket 4.4 06:15:25 10° N 06:17:52 13° NNE 06:20:18 10° NE
Cosmos 1656 Rocket 4.3 06:13:34 14° NNW 06:18:22 53° NE 06:23:54 10° SE
Abrixas rocket 4.5 06:16:06 11° SSW 06:18:35 22° SSE 06:21:17 10° ESE
SKYMED 2 4.2 06:15:12 10° SSW 06:19:08 33° W 06:19:10 33° W
Cosmos 2263 4.2 06:16:25 25° NW 06:19:40 61° WSW 06:25:10 10° SSE
Meteor 1-28 Rocket 3.4 06:19:20 10° S 06:23:00 47° W 06:24:18 33° NW
Cosmos 2341 Rocket 3.9 06:16:58 10° S 06:23:16 85° WNW 06:29:33 10° N
Meteor 2-13 Rocket 4.4 06:18:38 10° SSW 06:24:46 70° WNW 06:30:57 10° N
Meteor 1-11 Rocket 3.7 06:19:38 10° SSW 06:25:27 72° WNW 06:31:10 10° N
Ariane Rocket 2.9 06:21:58 10° NNE 06:27:03 79° WNW 06:32:07 10° SSW
Cosmos 1340 2.5 06:27:29 16° NNW 06:30:29 80° W 06:34:16 10° S
Meteor 1-29 3.6 06:30:23 10° SSE 06:33:41 55° ENE 06:37:01 10° N
Cosmos 2237 Rocket 3.6 06:34:01 18° NW 06:34:50 19° NNW 06:38:47 10° NNE
Okean 2 3.3 06:32:13 10° NNW 06:36:21 67° W 06:40:29 10° S
Meteor 1-23 Rocket 4.3 06:32:35 10° NNW 06:38:00 54° W 06:43:23 10° S
CSL-04 Rocket 3.6 06:33:39 10° NNE 06:39:15 79° WNW 06:44:46 10° SSW
CZ-2C R/B 3.3 06:35:21 10° NNE 06:40:28 55° E 06:45:28 10° S
Cosmos 1025 Rocket 3.4 06:37:37 15° NNW 06:40:51 41° W 06:44:57 10° SSW
USA 215 3.4 06:34:30 10° ENE 06:41:04 77° SSE 06:47:36 10° SW
SL-16 R/B 4.4 06:41:36 10° N 06:43:30 12° N 06:45:24 10° NNE
YAOGAN 1 3.6 06:39:18 10° NNE 06:43:32 49° E 06:47:44 10° S
CSL-04 Debris 4.1 06:38:24 10° NNE 06:43:53 83° WNW 06:49:22 10° SSW
Meteor 2-4 Rocket 4.1 06:43:18 10° NNW 06:48:22 40° W 06:53:33 10° SSW
IDEFIX/ARIANE 42P 3.2 06:43:19 10° NNE 06:48:28 60° ESE 06:53:36 10° S
Cosmos 2154 Rocket 4.2 06:44:43 10° SW 06:50:39 46° WNW 06:56:37 10° N
Okean-O 4.4 06:48:29 10° NNW 06:49:57 15° NW 06:49:57 15° NW
CZ-4 R/B 1.4 06:47:27 10° NNE 06:51:28 82° ESE 06:55:23 10° SSW
Cosmos 1602 Rocket 4.0 06:50:04 10° N 06:54:34 65° ENE 06:59:00 10° SSE
Cosmos 2369 Rocket 3.2 06:52:29 17° WNW 06:55:31 27° WSW 07:00:10 10° SSW
Cosmos 44 Rocket 3.4 06:52:13 10° SW 06:57:21 66° NW 07:02:26 10° NE
Cosmos 1536 3.4 06:55:41 10° SW 06:59:22 35° WNW 07:03:06 10° N
Lacrosse 5 1.9 06:55:26 10° WSW 07:00:33 86° SSE 07:05:42 10° ENE
Cosmos 1484 Rocket 4.4 06:58:15 10° NNE 07:01:47 37° E 07:05:21 10° SSE
Okean 1 Rocket 4.0 06:58:17 10° SW 07:02:00 26° WNW 07:05:42 10° N
SJ-12 3.9 06:58:45 10° NNE 07:02:56 85° WNW 07:07:06 10° SSW
Cosmos 1603 4.2 06:57:39 10° WSW 07:02:57 38° NW 07:08:14 10° NNE
Meteor 1-5 Rocket 4.0 06:59:00 10° SSW 07:04:19 69° WNW 07:09:38 10° N
Cosmos 1544 Rocket 3.5 07:00:27 10° SSW 07:04:49 74° WNW 07:09:15 10° N
ATLAS 5 CENTAUR R/B 3.3 07:01:36 12° NW 07:06:29 37° NNE 07:12:08 10° E
Meteor 2-19 Rocket 4.4 07:00:50 10° SSW 07:06:58 77° WNW 07:13:06 10° N
CENTAUR R/B 3.4 07:02:04 14° WNW 07:07:25 37° NNW 07:14:21 10° NE
COSMO-SKYMED 1 4.4 07:05:43 10° WSW 07:07:41 13° W 07:07:43 13° W
AQUARIUS 4.2 07:04:16 10° NNE 07:08:49 89° WSW 07:13:19 10° SSW
Cosmos 1110 Rocket 4.1 07:03:37 10° NNW 07:08:55 84° ENE 07:14:09 10° SSE
Cosmos 2219 Rocket 4.1 07:07:47 10° NW 07:10:07 13° NNW 07:12:33 10° N
Lacrosse 4 Rocket 1.9 07:10:03 13° NW 07:13:27 41° WSW 07:17:17 10° S
IRS-1A Rocket 4.4 07:11:54 10° N 07:17:29 60° WNW 07:23:09 10° SW
Cosmos 1515 3.8 07:15:06 10° NNW 07:18:54 55° W 07:22:39 10° S
SOZ 4.2 07:19:35 10° WSW 07:21:31 65° SSE 07:23:56 10° E
SL-8 Rocket 4.1 07:15:37 10° SSW 07:21:44 55° WNW 07:27:51 10° N
Lacrosse 5 rocket 1.9 07:18:13 12° WNW 07:22:04 51° NNE 07:26:28 10° E
COSMOS 2455 4.4 07:18:09 10° NNW 07:22:59 24° NNE 07:27:47 10° ENE
Cosmos 1943 3.4 07:21:17 10° SW 07:26:43 48° NW 07:32:13 10° NNE
Cosmos 1633 4.4 07:26:42 10° W 07:28:22 13° WNW 07:30:03 10° NW
ATLAS 3B R/B 3.3 07:22:31 10° NW 07:29:25 49° NNE 07:35:55 10° ESE
Cosmos 1825 Rocket 4.3 07:26:48 10° N 07:31:12 55° ENE 07:35:33 10° SSE
Cosmos 2333 Rocket 4.1 07:29:13 10° NW 07:31:31 12° NNW 07:33:49 10° N
Cosmos 2366 rocket 4.1 07:27:29 10° SSW 07:33:44 60° WNW 07:40:03 10° N
Cosmos 1626 Rocket 3.8 07:32:32 10° NNW 07:36:51 50° W 07:41:06 10° S
Cosmos 1943 Rocket 3.3 07:32:47 10° NW 07:37:12 25° WSW 07:41:35 10° SSW
PAYLOAD A 4.5 07:32:24 10° N 07:37:25 43° WNW 07:42:30 10° SW
Cosmos 2218 Rocket 4.3 07:34:42 10° SSW 07:40:53 49° WNW 07:47:06 10° N
Helios 1B rocket 3.7 07:38:38 10° SSW 07:42:02 24° W 07:45:27 10° NW
Cosmos 1302 Rocket 4.1 07:37:26 10° NNW 07:42:45 85° ENE 07:48:03 10° SSE
Cosmos 1975 3.0 07:39:44 10° SSW 07:43:45 54° WNW 07:47:49 10° N
Meteor 2-15 4.5 07:39:58 10° NNW 07:46:06 74° W 07:52:08 10° S
